Gainesville, FL

12:49 PM EST on December 05, 2019 (GMT -0500)
Gainesville Regional

Weather History for KGNV - November, 2019

Change the Weather History Date:

Tuesday, November 19, 2019

  Actual Average Record
Temperature  
Mean Temperature 56 °F 62 °F  
Max Temperature 68 °F 74 °F 90 °F (1906)
Min Temperature 43 °F 50 °F 27 °F (2014)
Degree Days  
Heating Degree Days 10 5  
Month to date heating degree days 99 68  
Since 1 July heating degree days 99 95  
Cooling Degree Days 0 2  
Month to date cooling degree days 36 51  
Year to date cooling degree days 3394 2601  
Growing Degree Days 6 (Base 50)    
Moisture  
Dew Point 42 °F    
Average Humidity 68    
Maximum Humidity 93    
Minimum Humidity 34    
Precipitation  
Precipitation 0.00 in 0.07 in 1.62 in (1939)
Month to date precipitation 1.51 1.32  
Year to date precipitation 43.34 44.19  
Snow  
Snow 0.00 in 0.00 in 0.00 in ()
Month to date snowfall 0.0 0.0  
Since 1 July snowfall 0.0 0.0  
Since 1 September snowfall 0.0 0.0  
Snow Depth 0.00 in    
Sea Level Pressure  
Sea Level Pressure 29.97 in    
Wind  
Wind Speed 5 mph ()    
Max Wind Speed 20 mph    
Max Gust Speed 25 mph    
Visibility 10.0 miles    
Events      
T = Trace of Precipitation, MM = Missing Value Source: Averaged Metar Reports

Daily Weather History Graph

Daily Weather History Graph

Search for Another Location

Airport or City:

Astronomy

Nov. 19, 2019 Rise Set
Actual Time 6:56 AM EST 5:31 PM EST
Civil Twilight 6:31 AM EST 5:57 PM EST
Nautical Twilight 6:02 AM EST 6:26 PM EST
Astronomical Twilight 5:33 AM EST 6:54 PM EST
Moon No Moon Rise 1:09 PM EST (11/19)
Length of Visible Light 11h 26m
Length of Day
10h 35m
Waning Gibbous, 52% of the Moon is Illuminated
Nov 19
Waning Gibbous
Nov 19
Last Quarter
Nov 26
New
Dec 4
First Quarter
Dec 12
Full

Hourly Weather History & Observations

Time (EST) Temp. Windchill Dew Point Humidity Pressure Visibility Wind Dir Wind Speed Gust Speed Precip Events Conditions
12:53 AM 46.0 °F - 44.1 °F 93% 29.89 in 9.0 mi Calm Calm - N/A   Clear
1:53 AM 46.0 °F 44.8 °F 44.1 °F 93% 29.88 in 10.0 mi West 3.5 mph - N/A   Clear
3:53 AM 46.9 °F - 44.1 °F 90% 29.88 in 10.0 mi West 5.8 mph - N/A   Clear
4:53 AM 46.0 °F 43.1 °F 43.0 °F 89% 29.90 in 10.0 mi WNW 5.8 mph - N/A   Clear
5:53 AM 46.9 °F - 43.0 °F 86% 29.93 in 10.0 mi WNW 6.9 mph - N/A   Clear
6:53 AM 45.0 °F 42.6 °F 41.0 °F 86% 29.95 in 10.0 mi WNW 4.6 mph - N/A   Clear
7:53 AM 48.9 °F - 43.0 °F 80% 29.96 in 10.0 mi WNW 6.9 mph - N/A   Clear
8:53 AM 55.0 °F - 44.1 °F 67% 29.98 in 10.0 mi NW 5.8 mph - N/A   Clear
9:53 AM 60.1 °F - 42.1 °F 51% 30.00 in 10.0 mi WNW 9.2 mph - N/A   Clear
10:53 AM 62.1 °F - 42.1 °F 48% 30.00 in 10.0 mi WNW 16.1 mph - N/A   Clear
11:53 AM 64.0 °F - 41.0 °F 43% 29.99 in 10.0 mi West 16.1 mph 23.0 mph N/A   Clear
12:53 PM 66.0 °F - 39.9 °F 38% 29.97 in 10.0 mi WNW 13.8 mph 24.2 mph N/A   Clear
1:53 PM 66.9 °F - 41.0 °F 39% 29.95 in 10.0 mi WNW 8.1 mph 20.7 mph N/A   Clear
2:53 PM 66.9 °F - 39.0 °F 36% 29.95 in 10.0 mi West 10.4 mph - N/A   Clear
3:53 PM 66.9 °F - 37.9 °F 34% 29.96 in 10.0 mi West 6.9 mph - N/A   Clear
4:53 PM 64.0 °F - 39.9 °F 41% 29.98 in 10.0 mi West 4.6 mph - N/A   Clear
5:53 PM 54.0 °F - 44.1 °F 69% 30.00 in 10.0 mi West 3.5 mph - N/A   Clear
8:53 PM 50.0 °F - 43.0 °F 77% 30.05 in 10.0 mi WSW 4.6 mph - N/A   Clear
9:53 PM 46.9 °F - 43.0 °F 86% 30.06 in 10.0 mi Calm Calm - N/A   Clear
10:53 PM 45.0 °F - 42.1 °F 90% 30.06 in 10.0 mi Calm Calm - N/A   Clear
11:53 PM 44.1 °F - 41.0 °F 89% 30.06 in 10.0 mi Calm Calm - N/A   Clear